Location: Newark
(43.2700°N, 11.0700°E)
Time: 17:25:09
(UTC+00:00)

ISS - Visible Passes

Search period start: 24 July 2021 00:00
Search period end: 03 August 2021 00:00
Orbit: 419 x 421 km, 51.6° (Epoch: 24 July)

Date Brightness Start Highest point End Pass type
(mag) Time Alt. Az. Time Alt. Az. Time Alt. Az.
24 Jul -1.5 20:19:54 10° NW 20:22:37 22° N 20:25:20 10° ENE visible
24 Jul -2.3 21:56:33 10° NW 21:58:48 38° NW 21:58:48 38° NW visible
25 Jul -1.3 19:32:32 10° NW 19:35:06 20° N 19:37:42 10° NE visible
25 Jul -2.9 21:09:17 10° NW 21:12:33 44° NNE 21:12:58 41° NE visible
26 Jul -2.3 20:22:01 10° NW 20:25:07 32° NNE 20:27:09 17° ENE visible
26 Jul -1.5 21:58:47 10° WNW 22:00:06 21° WNW 22:00:06 21° WNW visible
27 Jul -1.9 19:34:44 10° NW 19:37:39 26° NNE 19:40:33 10° ENE visible
27 Jul -3.5 21:11:23 10° WNW 21:14:20 64° W 21:14:20 64° W visible
28 Jul -3.6 20:24:03 10° NW 20:27:25 66° NNE 20:28:35 36° E visible
29 Jul -2.9 19:36:45 10° NW 19:40:01 44° NNE 19:42:53 13° E visible
29 Jul -2.0 21:13:47 10° WNW 21:15:51 24° WSW 21:15:51 24° WSW visible
30 Jul -3.2 20:26:13 10° WNW 20:29:28 46° SW 20:30:11 38° S visible
31 Jul -3.7 19:38:47 10° WNW 19:42:09 77° SW 19:44:35 18° SE visible
01 Aug -1.6 20:29:01 10° W 20:31:16 17° SW 20:31:59 16° SSW visible
02 Aug -2.2 19:41:08 10° WNW 19:44:03 27° SW 19:46:29 13° SSE visible
